FW8702 Weather Reports


time (UTC)temp
F
wind
direction
speed
knots
gust
knots
rain 1hr
in
rain 24hr
in
rain mn
in
humidity
%
barometer
mb
20260901000014 69 350 0.0 2.6 0.00 0.00 0.00 76 1017.0
20260831234517 68 340 1.7 3.5 0.00 0.00 0.00 79 1017.0
20260831233058 68 292 0.0 1.7 0.00 0.00 0.00 80 1016.8
20260831231508 68 287 0.0 2.6 0.00 0.00 0.00 82 1016.8
20260831230106 68 279 0.0 3.5 0.00 0.00 0.00 82 1016.8
20260831224603 69 315 0.0 1.7 0.00 0.00 0.00 82 1016.7
20260831223012 69 321 0.0 1.7 0.00 0.00 0.00 82 1016.7
20260831221604 69 350 0.0 0.0 0.00 0.00 0.00 82 1016.6
20260831220109 70 334 0.0 0.9 0.00 0.00 0.00 81 1016.4
20260831214537 70 279 0.0 3.5 0.00 0.00 0.00 81 1016.4
20260831213028 71 314 0.0 2.6 0.00 0.00 0.00 80 1016.5
20260831211604 72 49 0.9 3.5 0.00 0.00 0.00 78 1016.4
20260831210020 73 286 0.0 3.5 0.00 0.00 0.00 78 1016.3
20260831204600 73 288 1.7 4.3 0.00 0.00 0.00 80 1016.1
20260831203115 71 354 0.0 2.6 0.00 0.00 0.00 81 1016.2
20260831201510 72 294 0.0 0.9 0.00 0.00 0.00 80 1015.9
20260831200103 72 353 0.0 1.7 0.00 0.00 0.00 81 1015.5
20260831194519 72 99 0.0 2.6 0.00 0.00 0.00 80 1015.5
20260831193015 73 98 0.0 1.7 0.00 0.00 0.00 79 1015.3
20260831191544 73 326 0.0 0.9 0.00 0.00 0.00 80 1015.1
20260831190041 73 299 0.0 0.9 0.00 0.00 0.00 79 1014.9
20260831184600 73 323 0.0 1.7 0.00 0.00 0.00 80 1014.8
20260831183003 74 269 0.0 2.6 0.00 0.00 0.00 79 1014.5
20260831181542 75 279 0.0 1.7 0.00 0.00 0.00 78 1014.4
20260831180045 77 277 0.0 0.0 0.00 0.00 0.00 76 1014.3
20260831174537 79 277 0.0 0.0 0.00 0.00 0.00 73 1014.2
20260831173041 81 277 0.0 0.9 0.00 0.00 0.00 69 1014.2
20260831171506 83 277 0.0 0.0 0.00 0.00 0.00 64 1014.2
20260831170043 83 277 0.0 1.7 0.00 0.00 0.00 63 1014.3
20260831164556 84 281 0.0 2.6 0.00 0.00 0.00 61 1014.3
20260831163042 86 266 0.0 0.9 0.00 0.00 0.00 55 1014.2
20260831161550 86 281 0.9 2.6 0.00 0.00 0.00 54 1014.3
20260831160003 86 252 0.0 2.6 0.00 0.00 0.00 54 1014.3
20260831154517 86 229 0.0 2.6 0.00 0.00 0.00 51 1014.5
20260831153045 87 156 0.0 1.7 0.00 0.00 0.00 51 1014.5
20260831151527 86 203 0.0 2.6 0.00 0.00 0.00 49 1014.6
20260831150016 87 269 0.0 4.3 0.00 0.00 0.00 51 1014.6
20260831144542 87 224 0.0 2.6 0.00 0.00 0.00 51 1014.7
20260831143114 87 246 1.7 3.5 0.00 0.00 0.00 50 1014.8
20260831141555 87 65 0.0 5.2 0.00 0.00 0.00 51 1014.7
20260831140104 88 188 0.0 4.3 0.00 0.00 0.00 49 1014.7
20260831134536 87 188 0.9 6.1 0.00 0.00 0.00 52 1014.8
20260831133025 87 281 1.7 5.2 0.00 0.00 0.00 49 1014.9
20260831131518 87 161 0.0 5.2 0.00 0.00 0.00 52 1015.0
20260831130013 86 237 0.9 6.1 0.00 0.00 0.00 53 1015.0
20260831124553 87 177 0.0 5.2 0.00 0.00 0.00 52 1015.3
20260831123025 85 3 0.9 5.2 0.00 0.00 0.00 51 1015.4
20260831121558 85 246 2.6 7.0 0.00 0.00 0.00 51 1015.5
20260831120039 85 222 0.9 3.5 0.00 0.00 0.00 54 1015.5
20260831114535 86 230 0.9 7.8 0.00 0.00 0.00 52 1015.7
20260831113044 86 263 0.0 4.3 0.00 0.00 0.00 53 1016.1
20260831111601 85 181 1.7 6.1 0.00 0.00 0.00 54 1016.0
20260831110022 86 192 0.0 4.3 0.00 0.00 0.00 54 1016.1
20260831104502 84 198 0.0 2.6 0.00 0.00 0.00 53 1016.2
20260831103020 85 192 0.0 3.5 0.00 0.00 0.00 52 1016.1
20260831101556 84 65 0.9 3.5 0.00 0.00 0.00 54 1016.4
20260831100048 82 111 3.5 6.1 0.00 0.00 0.00 59 1016.3
20260831094607 82 31 0.0 2.6 0.00 0.00 0.00 61 1016.6
20260831093027 82 315 1.7 3.5 0.00 0.00 0.00 59 1016.6
20260831091546 81 283 0.0 4.3 0.00 0.00 0.00 68 1016.5
20260831090024 79 224 3.5 5.2 0.00 0.00 0.00 65 1016.7
20260831084608 79 258 0.0 2.6 0.00 0.00 0.00 66 1016.6
20260831083103 79 238 0.9 3.5 0.00 0.00 0.00 64 1016.6
20260831081538 78 296 0.9 2.6 0.00 0.00 0.00 66 1016.5
20260831080002 77 356 0.9 3.5 0.00 0.00 0.00 67 1016.5
20260831074520 77 286 0.9 2.6 0.00 0.00 0.00 67 1016.3
20260831073036 76 277 0.0 3.5 0.00 0.00 0.00 69 1016.5
20260831071604 75 30 3.5 7.8 0.00 0.00 0.00 70 1016.4
20260831070103 75 13 2.6 7.8 0.00 0.00 0.00 71 1016.4
20260831064550 74 57 2.6 7.0 0.00 0.00 0.00 71 1016.5
20260831063050 73 256 0.0 1.7 0.00 0.00 0.00 75 1016.5
20260831061543 71 292 0.9 3.5 0.00 0.00 0.00 77 1016.5
20260831060105 71 279 0.0 3.5 0.00 0.00 0.00 77 1016.4
20260831054531 70 273 1.7 2.6 0.00 0.00 0.00 78 1016.5
20260831053018 69 45 0.0 2.6 0.00 0.00 0.00 80 1016.5
20260831051503 69 244 0.9 2.6 0.00 0.00 0.00 78 1016.5
20260831050001 71 305 1.7 8.7 0.00 0.00 0.00 75 1016.4
20260831044536 71 256 0.0 5.2 0.00 0.00 0.00 74 1016.3
20260831043101 71 326 3.5 9.6 0.00 0.00 0.00 75 1016.2
20260831041513 70 8 2.6 4.3 0.00 0.00 0.00 78 1016.2
20260831040036 70 88 0.0 4.3 0.00 0.00 0.00 81 1016.2
20260831034510 67 300 0.0 0.0 0.00 0.00 0.00 81 1016.5
20260831033052 69 293 0.9 3.5 0.00 0.00 0.00 79 1016.6
20260831031552 70 231 0.0 5.2 0.00 0.00 0.00 77 1016.4
20260831030026 71 319 1.7 5.2 0.00 0.00 0.00 76 1016.3
20260831024509 71 260 0.9 3.5 0.00 0.00 0.00 76 1016.4
20260831023047 70 40 1.7 4.3 0.00 0.00 0.00 79 1016.4
20260831021521 70 285 0.9 5.2 0.00 0.00 0.00 80 1016.6
20260831020029 68 257 0.9 2.6 0.00 0.00 0.00 82 1016.5
20260831014539 68 279 0.9 3.5 0.00 0.00 0.00 82 1016.5
20260831013056 69 275 0.0 1.7 0.00 0.00 0.00 81 1016.7
20260831011540 70 79 0.0 1.7 0.00 0.00 0.00 80 1016.5
20260831010003 71 341 0.0 1.7 0.00 0.00 0.00 79 1016.8
20260831004557 71 325 3.5 8.7 0.00 0.00 0.00 78 1016.5
20260831003035 70 284 0.0 1.7 0.00 0.00 0.00 81 1016.6
20260831001523 70 352 0.0 3.5 0.00 0.00 0.00 81 1016.6